TimeCDT,TemperatureF,Dew PointF,Humidity,Sea Level PressureIn,VisibilityMPH,Wind Direction,Wind SpeedMPH,Gust SpeedMPH,PrecipitationIn,Events,Conditions,WindDirDegrees,DateUTC
12:15 AM,59.5,59.4,99,29.82,5.0,SE,10.4,-,N/A,,Overcast,130,2013-05-10 05:15:00
12:35 AM,59.5,59.4,99,29.82,7.0,South,9.2,-,N/A,,Overcast,170,2013-05-10 05:35:00
12:55 AM,59.7,59.4,99,29.82,10.0,South,9.2,-,N/A,,Overcast,170,2013-05-10 05:55:00
1:15 AM,59.9,59.5,99,29.81,7.0,South,5.8,-,N/A,,Mostly Cloudy,180,2013-05-10 06:15:00
1:35 AM,59.9,59.5,99,29.80,7.0,SSW,5.8,-,N/A,,Overcast,200,2013-05-10 06:35:00
1:55 AM,59.9,59.7,99,29.79,5.0,SSW,6.9,-,N/A,,Overcast,210,2013-05-10 06:55:00
2:15 AM,59.9,59.7,99,29.79,5.0,SSW,8.1,-,N/A,,Scattered Clouds,210,2013-05-10 07:15:00
2:35 AM,60.3,60.1,99,29.79,5.0,SSW,11.5,-,N/A,,Overcast,210,2013-05-10 07:35:00
2:55 AM,60.4,60.3,99,29.79,7.0,SSW,11.5,-,N/A,,Overcast,210,2013-05-10 07:55:00
3:15 AM,60.8,60.8,100,29.79,5.0,SW,9.2,-,N/A,,Overcast,220,2013-05-10 08:15:00
3:35 AM,61.2,61.0,99,29.79,7.0,SW,10.4,-,N/A,,Overcast,220,2013-05-10 08:35:00
3:55 AM,61.2,60.8,99,29.78,7.0,SSW,10.4,16.1,N/A,,Overcast,210,2013-05-10 08:55:00
4:15 AM,61.0,60.4,98,29.78,7.0,SW,11.5,17.3,N/A,,Mostly Cloudy,220,2013-05-10 09:15:00
4:35 AM,60.8,60.3,98,29.78,7.0,SW,10.4,-,N/A,,Mostly Cloudy,220,2013-05-10 09:35:00
4:55 AM,61.0,60.4,98,29.77,7.0,SW,10.4,17.3,N/A,,Overcast,230,2013-05-10 09:55:00
5:15 AM,60.8,60.1,97,29.77,7.0,SW,9.2,-,N/A,,Overcast,220,2013-05-10 10:15:00
5:35 AM,60.8,59.9,97,29.78,10.0,SW,9.2,-,N/A,,Overcast,220,2013-05-10 10:35:00
5:55 AM,60.4,59.9,98,29.78,7.0,SW,10.4,-,N/A,,Overcast,220,2013-05-10 10:55:00
6:15 AM,60.4,59.9,98,29.78,7.0,SW,10.4,-,N/A,,Overcast,230,2013-05-10 11:15:00
6:35 AM,60.4,59.9,98,29.79,5.0,SW,10.4,-,N/A,,Overcast,230,2013-05-10 11:35:00
6:55 AM,60.6,59.9,97,29.80,7.0,SW,10.4,-,N/A,,Overcast,220,2013-05-10 11:55:00
7:15 AM,60.6,59.9,97,29.80,5.0,SW,11.5,-,N/A,,Overcast,220,2013-05-10 12:15:00
7:35 AM,60.8,59.9,97,29.81,5.0,SW,9.2,-,N/A,,Overcast,220,2013-05-10 12:35:00
7:55 AM,61.0,60.1,97,29.80,5.0,SW,10.4,-,N/A,,Overcast,230,2013-05-10 12:55:00
8:15 AM,61.3,60.3,96,29.81,5.0,SW,9.2,-,N/A,,Overcast,230,2013-05-10 13:15:00
8:35 AM,58.6,57.0,94,29.82,2.0,NW,15.0,19.6,N/A,,Overcast,320,2013-05-10 13:35:00
8:55 AM,50.7,50.0,97,29.83,2.0,NW,13.8,-,N/A,,Overcast,310,2013-05-10 13:55:00
9:15 AM,49.5,49.1,99,29.84,3.0,NW,16.1,-,N/A,,Overcast,310,2013-05-10 14:15:00
9:35 AM,49.3,48.7,98,29.84,7.0,NW,13.8,-,N/A,,Overcast,320,2013-05-10 14:35:00
9:55 AM,49.3,48.4,97,29.84,7.0,NW,16.1,-,N/A,,Overcast,320,2013-05-10 14:55:00
10:15 AM,49.1,48.2,97,29.86,5.0,WNW,6.9,-,N/A,,Overcast,300,2013-05-10 15:15:00
10:35 AM,48.9,48.0,97,29.87,7.0,West,8.1,-,N/A,,Overcast,280,2013-05-10 15:35:00
10:55 AM,49.1,48.0,96,29.87,10.0,West,10.4,-,N/A,,Overcast,280,2013-05-10 15:55:00
11:15 AM,49.8,48.4,95,29.87,10.0,WNW,11.5,-,N/A,,Overcast,300,2013-05-10 16:15:00
11:35 AM,50.7,49.1,94,29.87,10.0,WNW,11.5,-,N/A,,Overcast,300,2013-05-10 16:35:00
11:55 AM,51.4,49.3,92,29.86,10.0,NW,12.7,-,N/A,,Overcast,310,2013-05-10 16:55:00
12:15 PM,52.5,50.0,91,29.86,10.0,NW,15.0,20.7,N/A,,Overcast,310,2013-05-10 17:15:00
12:35 PM,51.4,49.1,92,29.87,10.0,NW,15.0,-,N/A,,Overcast,310,2013-05-10 17:35:00
12:55 PM,50.5,48.4,92,29.87,7.0,NW,11.5,-,N/A,,Overcast,310,2013-05-10 17:55:00
1:15 PM,50.2,48.4,94,29.88,10.0,NW,12.7,-,N/A,,Overcast,320,2013-05-10 18:15:00
1:35 PM,50.0,48.0,93,29.89,10.0,NW,12.7,17.3,N/A,,Overcast,310,2013-05-10 18:35:00
1:55 PM,49.8,47.8,93,29.89,10.0,NW,13.8,-,N/A,,Overcast,320,2013-05-10 18:55:00
2:15 PM,48.9,47.3,94,29.89,10.0,NW,12.7,18.4,N/A,,Overcast,320,2013-05-10 19:15:00
2:35 PM,48.6,46.9,94,29.89,10.0,NW,12.7,-,N/A,,Overcast,320,2013-05-10 19:35:00
2:55 PM,47.8,46.2,94,29.89,10.0,NW,16.1,23.0,N/A,,Overcast,320,2013-05-10 19:55:00
3:15 PM,46.8,45.5,95,29.88,10.0,NW,15.0,-,N/A,,Overcast,320,2013-05-10 20:15:00
3:35 PM,46.2,45.0,95,29.88,10.0,NW,16.1,21.9,N/A,,Overcast,310,2013-05-10 20:35:00
3:55 PM,46.0,44.8,95,29.88,10.0,NNW,15.0,-,N/A,,Overcast,330,2013-05-10 20:55:00
4:15 PM,45.9,44.6,95,29.88,7.0,NW,15.0,20.7,N/A,,Overcast,320,2013-05-10 21:15:00
4:35 PM,45.9,44.6,95,29.88,10.0,NNW,13.8,20.7,N/A,,Overcast,330,2013-05-10 21:35:00
4:55 PM,46.4,44.6,93,29.88,10.0,NNW,15.0,-,N/A,,Overcast,340,2013-05-10 21:55:00
5:15 PM,46.0,44.4,94,29.88,10.0,NNW,15.0,-,N/A,,Overcast,330,2013-05-10 22:15:00
5:35 PM,45.5,44.4,96,29.89,7.0,NNW,15.0,-,N/A,,Overcast,330,2013-05-10 22:35:00
5:55 PM,45.5,44.4,96,29.89,10.0,NNW,12.7,-,N/A,,Overcast,330,2013-05-10 22:55:00
6:15 PM,45.3,44.4,97,29.89,10.0,NW,12.7,-,N/A,,Overcast,310,2013-05-10 23:15:00
6:35 PM,45.0,43.9,96,29.90,7.0,NW,11.5,17.3,N/A,,Overcast,320,2013-05-10 23:35:00
6:55 PM,44.4,43.5,97,29.91,5.0,NW,12.7,-,N/A,,Overcast,310,2013-05-10 23:55:00
7:15 PM,43.5,42.8,97,29.91,2.0,NW,15.0,-,N/A,,Overcast,310,2013-05-11 00:15:00
7:35 PM,42.8,42.4,99,29.92,3.0,NW,11.5,17.3,N/A,,Overcast,320,2013-05-11 00:35:00
7:55 PM,42.6,42.1,98,29.93,1.5,WNW,15.0,-,N/A,,Overcast,300,2013-05-11 00:55:00
8:15 PM,42.1,41.7,99,29.94,1.2,NW,12.7,-,N/A,,Overcast,310,2013-05-11 01:15:00
8:35 PM,41.9,41.4,98,29.93,2.0,NW,12.7,-,N/A,,Overcast,320,2013-05-11 01:35:00
8:55 PM,41.5,41.2,99,29.94,1.8,NW,11.5,-,N/A,,Overcast,320,2013-05-11 01:55:00
9:15 PM,41.5,41.2,99,29.94,1.0,NNW,10.4,-,N/A,,Overcast,330,2013-05-11 02:15:00
9:35 PM,41.5,41.2,99,29.94,1.0,NNW,11.5,-,N/A,,Overcast,330,2013-05-11 02:35:00
9:55 PM,41.4,41.0,99,29.95,1.2,NW,8.1,-,N/A,,Overcast,320,2013-05-11 02:55:00
10:15 PM,41.5,41.2,99,29.95,1.2,NW,8.1,-,N/A,,Overcast,320,2013-05-11 03:15:00
10:35 PM,41.4,41.2,99,29.95,1.2,NNW,9.2,-,N/A,,Overcast,330,2013-05-11 03:35:00
10:55 PM,41.4,41.2,99,29.94,1.8,NNW,8.1,-,N/A,,Overcast,330,2013-05-11 03:55:00
11:15 PM,41.5,41.2,99,29.94,2.5,NW,8.1,-,N/A,,Overcast,320,2013-05-11 04:15:00
11:35 PM,41.5,41.2,99,29.94,3.0,NW,10.4,-,N/A,,Overcast,320,2013-05-11 04:35:00
11:55 PM,41.5,41.4,99,29.93,3.0,NW,8.1,-,N/A,,Overcast,320,2013-05-11 04:55:00